Home > Weather > Lage > Past weeks

Flag for Germany Weather for the Past 2 Weeks in Lage, North Rhine-Westphalia, Germany

Now
39 °F

Partly sunny.


Feels Like: 32 °F
Forecast: 37 / 41 °F
Wind: 13 mph from Southwest

Location: Bueckeburg

Current Time: Feb 10, 2016 at 12:49:25 PM

Latest Report: Feb 10, 2016 at 12:20 PM


Visibility: N/A

Pressure: 29.27 "Hg

Humidity: 87%

Dew point: 36 °F

Location of LageLocation

Historic Weather in Lage — Graph

°F

Lage Temperature Yesterday

Maximum temperature yesterday: 48 °F (at 6:20 PM)
Minimum temperature yesterday: 34 °F (at 10:20 PM)
Average temperature yesterday: 43 °F

High & Low Weather Summary for the Past Weeks

 TemperatureHumidityPressure
High54 °F (Jan 27, 4:20 PM)100% (Jan 31, 9:20 PM)30.27 "Hg (Jan 31, 9:20 PM)
Low34 °F (Feb 9, 10:20 PM)57% (Jan 28, 1:20 PM)28.80 "Hg (Feb 9, 6:20 PM)
Average45 °F81%29.79 "Hg
* Reported Jan 26 11:20 AM — Feb 10 11:20 AM, Lage, Weather by CustomWeather, © 2016

Note: Actual official high and low records may vary slightly from our data, if they occured in-between our weather recording intervals... More about our weather records

Advertising

Lage Weather History for the Previous 24 Hours

 ConditionsComfort  
Time TempWeatherWind HumidityBarometerVisibility
11:20 AM
Wed, Feb 10
37 °FPartly sunny.13 mph93%29.24 "HgN/A
10:20 AM37 °FPartly sunny.10 mph87%29.24 "HgN/A
9:20 AM36 °FPartly sunny.12 mph93%29.21 "HgN/A
8:59 AM36 °FPartly sunny.10 mph93%29.24 "HgN/A
8:20 AM37 °FBroken clouds.15 mph87%29.21 "Hg6 mi
7:20 AM39 °FPassing clouds.12 mph81%29.21 "HgN/A
6:20 AM39 °FPartly cloudy.14 mph81%29.18 "HgN/A
5:20 AM39 °FPassing clouds.14 mph81%29.18 "HgN/A
4:20 AM39 °FPassing clouds.16 mph81%29.18 "HgN/A
3:20 AM39 °FPassing clouds.18 mph81%29.18 "HgN/A
2:20 AM39 °FPassing clouds.17 mph87%29.18 "HgN/A
1:20 AM37 °FPassing clouds.16 mph93%29.15 "HgN/A
12:20 AM36 °FPassing clouds.20 mph93%29.12 "HgN/A
11:48 PM
Tue, Feb 9
36 °FLight rain. Passing clouds.18 mph93%29.09 "Hg5 mi
11:20 PM34 °FLight rain. Fog.20 mph100%29.09 "Hg3 mi
10:20 PM34 °FRain. Fog.28 mph100%29.00 "Hg2 mi
10:03 PM36 °FRain. Fog.35 mph93%28.94 "Hg3 mi
9:20 PM37 °FLight rain. Passing clouds.29 mph87%28.88 "Hg4 mi
8:20 PM46 °FLight rain. Passing clouds.32 mph76%28.80 "HgN/A
7:20 PM48 °FPassing clouds.23 mph76%28.80 "HgN/A
6:20 PM48 °FPassing clouds.18 mph82%28.80 "HgN/A
5:20 PM46 °FBroken clouds.25 mph82%28.82 "HgN/A
4:20 PM41 °FLight rain. Broken clouds.24 mph93%28.88 "HgN/A
3:20 PM41 °FLight rain. Broken clouds.15 mph93%29.00 "HgN/A
2:20 PM45 °FLight rain. Mostly cloudy.16 mph76%29.09 "HgN/A
1:20 PM46 °FMore clouds than sun.10 mph66%29.15 "HgN/A
12:20 PM46 °FCool.N/A66%29.21 "HgN/A
Weather by CustomWeather, © 2016

See weather overviewHow to use our weather pages